FW1417 Weather Reports


Display with metric or nautical units.
time (UTC)temp
F
wind
direction
speed
MPH
gust
MPH
rain 1hr
in
rain 24hr
in
rain mn
in
humidity
%
barometer
mb
20260510120206 56 162 1.0 5.0 0.00 0.22 0.00 89 1009.4
20260510115205 56 171 1.0 5.0 0.00 0.22 0.00 89 1009.1
20260510114205 56 140 1.0 3.0 0.00 0.22 0.00 90 1009.2
20260510113706 56 208 2.0 3.0 0.00 0.22 0.00 90 1009.1
20260510113206 55 181 1.0 3.0 0.00 0.22 0.00 90 1009.1
20260510112706 55 177 1.0 3.0 0.00 0.22 0.00 91 1009.0
20260510112206 55 109 1.0 3.0 0.00 0.22 0.00 91 1008.8
20260510111705 55 115 1.0 3.0 0.00 0.22 0.00 91 1008.7
20260510110706 55 42 0.0 2.0 0.00 0.22 0.00 91 1008.5
20260510110205 54 34 0.0 2.0 0.00 0.22 0.00 91 1008.5
20260510105705 54 36 0.0 3.0 0.00 0.22 0.00 91 1008.4
20260510105205 54 22 2.0 3.0 0.00 0.22 0.00 91 1008.3
20260510104705 54 74 1.0 3.0 0.00 0.22 0.00 91 1008.4
20260510104205 54 23 1.0 3.0 0.00 0.22 0.00 91 1008.4
20260510103705 54 33 1.0 3.0 0.00 0.22 0.00 91 1008.5
20260510103205 54 322 1.0 3.0 0.00 0.22 0.00 91 1008.6
20260510102705 54 320 0.0 3.0 0.00 0.22 0.00 92 1008.6
20260510101205 54 358 2.0 7.0 0.00 0.22 0.00 91 1008.5
20260510100705 54 347 2.0 7.0 0.00 0.22 0.00 91 1008.5
20260510100206 54 36 2.0 5.0 0.00 0.22 0.00 91 1008.4
20260510095705 54 9 2.0 3.0 0.00 0.22 0.00 91 1008.5
20260510095205 54 5 1.0 3.0 0.00 0.22 0.00 91 1008.6
20260510094705 54 0 2.0 3.0 0.00 0.22 0.00 91 1008.6
20260510094205 54 30 2.0 5.0 0.00 0.22 0.00 92 1008.7
20260510093706 54 22 3.0 7.0 0.00 0.22 0.00 91 1008.8
20260510093205 54 34 2.0 7.0 0.00 0.22 0.00 92 1008.9
20260510092705 54 27 3.0 7.0 0.00 0.22 0.00 92 1009.0
20260510092206 54 49 2.0 5.0 0.00 0.22 0.00 92 1009.0
20260510091706 54 17 2.0 7.0 0.00 0.22 0.00 92 1009.2
20260510091205 54 26 3.0 7.0 0.00 0.22 0.00 92 1009.0
20260510090705 54 5 1.0 6.0 0.00 0.22 0.00 92 1009.0
20260510085205 54 355 3.0 7.0 0.00 0.22 0.00 92 1008.9
20260510084706 54 309 4.0 7.0 0.00 0.22 0.00 92 1009.0
20260510084206 54 293 3.0 8.0 0.00 0.22 0.00 92 1009.0
20260510083705 54 13 3.0 8.0 0.00 0.22 0.00 92 1008.8
20260510083205 54 325 2.0 5.0 0.00 0.22 0.00 92 1008.8
20260510082705 54 330 0.0 3.0 0.00 0.22 0.00 92 1008.4
20260510082205 54 16 1.0 3.0 0.00 0.22 0.00 92 1008.2
20260510081705 54 10 1.0 3.0 0.00 0.22 0.00 92 1008.2
20260510081205 54 355 0.0 1.0 0.00 0.22 0.00 92 1008.1
20260510080705 54 355 0.0 3.0 0.00 0.22 0.00 92 1008.2
20260510080205 54 355 0.0 3.0 0.00 0.22 0.00 92 1008.1
20260510075705 54 350 1.0 3.0 0.00 0.22 0.00 92 1008.1
20260510075205 54 323 1.0 2.0 0.00 0.22 0.00 92 1008.0
20260510074705 54 5 1.0 3.0 0.00 0.22 0.00 92 1008.0
20260510074205 54 5 1.0 3.0 0.00 0.22 0.00 92 1007.9
20260510073705 54 24 2.0 3.0 0.00 0.22 0.00 92 1007.9
20260510073205 54 26 1.0 5.0 0.00 0.22 0.00 92 1007.9
20260510072706 54 5 1.0 5.0 0.00 0.22 0.00 92 1007.9
20260510072206 54 20 3.0 5.0 0.00 0.22 0.00 92 1007.9
20260510071705 54 26 1.0 3.0 0.00 0.22 0.00 92 1008.0
20260510071205 54 355 1.0 3.0 0.00 0.22 0.00 92 1008.0
20260510070705 54 11 1.0 3.0 0.00 0.22 0.00 91 1008.0
20260510070205 54 165 0.0 2.0 0.00 0.22 0.00 91 1008.1
20260510065705 54 165 0.0 2.0 0.00 0.22 0.00 91 1008.1
20260510064705 54 165 0.0 1.0 0.00 0.22 0.00 91 1008.0
20260510064205 54 165 0.0 2.0 0.00 0.22 0.00 91 1008.0
20260510063705 54 165 1.0 2.0 0.00 0.22 0.00 91 1007.9
20260510063205 54 130 0.0 2.0 0.00 0.22 0.00 91 1007.8
20260510062705 54 132 1.0 2.0 0.00 0.22 0.00 91 1007.7
20260510062205 54 139 1.0 2.0 0.00 0.22 0.00 91 1007.6
20260510061705 54 137 0.0 1.0 0.00 0.22 0.00 91 1007.6
20260510061205 54 137 0.0 1.0 0.00 0.22 0.00 91 1007.6
20260510060705 54 137 0.0 1.0 0.00 0.22 0.00 91 1007.6
20260510060205 54 137 0.0 1.0 0.00 0.22 0.00 90 1007.7
20260510055705 54 137 0.0 2.0 0.00 0.22 0.00 90 1007.7
20260510055205 54 137 0.0 3.0 0.00 0.22 0.00 90 1007.8
20260510054205 54 136 1.0 2.0 0.00 0.22 0.00 90 1007.9
20260510053705 54 136 0.0 1.0 0.00 0.22 0.00 90 1007.9
20260510053205 54 136 0.0 1.0 0.00 0.22 0.00 90 1007.9
20260510052705 54 136 0.0 1.0 0.00 0.22 0.00 90 1007.8
20260510052206 54 136 0.0 1.0 0.00 0.22 0.00 89 1007.7
20260510051706 54 136 0.0 0.0 0.00 0.22 0.00 90 1007.9
20260510051205 54 136 0.0 2.0 0.00 0.22 0.00 90 1007.9
20260510050705 54 136 0.0 2.0 0.00 0.22 0.00 90 1008.0
20260510050208 54 136 1.0 2.0 0.00 0.22 0.00 89 1008.0
20260510045706 54 129 1.0 2.0 0.00 0.22 0.00 89 1008.0
20260510045206 54 126 0.0 2.0 0.00 0.22 0.00 89 1008.2
20260510044706 54 116 0.0 2.0 0.00 0.22 0.00 89 1008.1
20260510044206 54 116 0.0 2.0 0.00 0.22 0.00 89 1008.1
20260510043707 55 115 0.0 1.0 0.00 0.22 0.00 89 1008.0
20260510043207 55 116 0.0 1.0 0.00 0.22 0.00 89 1008.1
20260510042707 55 115 0.0 1.0 0.00 0.22 0.00 89 1008.1
20260510042207 55 116 0.0 1.0 0.00 0.22 0.00 89 1008.0
20260510041707 55 116 0.0 0.0 0.00 0.22 0.00 89 1008.0
20260510040708 55 116 0.0 0.0 0.00 0.22 0.00 88 1007.9
20260510040207 55 115 0.0 0.0 0.00 0.22 0.00 88 1007.9
20260510035706 55 116 0.0 0.0 0.00 0.22 0.22 88 1007.8
20260510035206 55 116 0.0 0.0 0.00 0.22 0.22 88 1007.7
20260510033707 55 115 0.0 0.0 0.00 0.22 0.22 88 1007.6
20260510032706 55 116 0.0 1.0 0.00 0.22 0.22 88 1007.5
20260510032206 55 116 0.0 1.0 0.00 0.22 0.22 88 1007.6
20260510031706 55 116 0.0 0.0 0.00 0.22 0.22 88 1007.5
20260510031206 55 116 0.0 0.0 0.00 0.22 0.22 88 1007.5
20260510030706 55 116 0.0 0.0 0.00 0.22 0.22 88 1007.5
20260510025706 56 116 0.0 0.0 0.00 0.22 0.22 88 1007.6
20260510025206 56 115 0.0 0.0 0.00 0.22 0.22 88 1007.5
20260510024706 56 116 0.0 0.0 0.00 0.22 0.22 88 1007.6
20260510024206 56 115 0.0 0.0 0.00 0.22 0.22 88 1007.6
20260510023706 56 116 0.0 2.0 0.00 0.22 0.22 88 1007.7
20260510023206 56 116 0.0 2.0 0.00 0.22 0.22 88 1007.7
20260510022707 56 116 0.0 2.0 0.00 0.22 0.22 88 1007.6
20260510022206 56 116 0.0 2.0 0.00 0.22 0.22 88 1007.5
20260510021706 56 115 1.0 2.0 0.00 0.22 0.22 88 1007.6
20260510020706 56 116 0.0 2.0 0.00 0.22 0.22 88 1007.6
20260510020207 56 116 0.0 2.0 0.00 0.22 0.22 88 1007.7
20260510015706 56 116 0.0 2.0 0.00 0.22 0.22 88 1007.7
20260510015206 56 116 0.0 1.0 0.00 0.22 0.22 88 1007.6
20260510014706 56 116 0.0 1.0 0.00 0.22 0.22 88 1007.6
20260510014206 56 122 0.0 1.0 0.00 0.22 0.22 88 1007.6
20260510013706 56 122 0.0 2.0 0.00 0.22 0.22 88 1007.6
20260510013206 56 122 1.0 2.0 0.00 0.22 0.22 88 1007.7
20260510012706 56 101 0.0 3.0 0.00 0.22 0.22 88 1007.5
20260510012206 56 101 1.0 3.0 0.00 0.22 0.22 88 1007.4
20260510011706 56 167 2.0 3.0 0.00 0.22 0.22 88 1007.3
20260510011206 56 85 0.0 3.0 0.00 0.22 0.22 88 1007.2
20260510010706 56 121 1.0 3.0 0.00 0.22 0.22 88 1007.2
20260510010207 56 144 2.0 3.0 0.00 0.22 0.22 88 1006.9
20260510005706 56 123 0.0 3.0 0.00 0.22 0.22 88 1007.0
20260510005207 56 146 1.0 3.0 0.00 0.22 0.22 88 1006.9
20260510004708 56 86 1.0 3.0 0.00 0.22 0.22 87 1007.0
20260510004206 56 101 0.0 2.0 0.00 0.22 0.22 87 1007.0
20260510003706 57 341 0.0 1.0 0.00 0.22 0.22 87 1006.9
20260510003206 57 341 0.0 0.0 0.00 0.22 0.22 87 1006.9
20260510002706 57 341 0.0 1.0 0.00 0.22 0.22 87 1006.8
20260510001207 57 329 1.0 2.0 0.00 0.22 0.22 87 1006.9
20260510000706 57 329 0.0 2.0 0.00 0.22 0.22 87 1006.8
20260509235706 57 320 0.0 1.0 0.00 0.22 0.22 87 1006.7
20260509234206 57 312 1.0 3.0 0.00 0.22 0.22 87 1006.7
20260509233706 57 327 0.0 2.0 0.00 0.22 0.22 87 1006.7
20260509232706 57 12 0.0 2.0 0.00 0.22 0.22 87 1006.5
20260509232206 57 26 0.0 3.0 0.01 0.22 0.22 87 1006.6
20260509231706 57 47 1.0 3.0 0.03 0.22 0.22 87 1006.6
20260509231206 57 79 1.0 3.0 0.07 0.22 0.22 86 1006.6
20260509230706 57 5 0.0 3.0 0.07 0.22 0.22 86 1006.6
20260509230206 57 5 1.0 3.0 0.07 0.22 0.22 86 1006.7
20260509225706 57 23 0.0 2.0 0.08 0.22 0.22 86 1006.8
20260509225208 57 42 1.0 3.0 0.11 0.22 0.22 85 1006.8
20260509224706 57 42 0.0 3.0 0.12 0.22 0.22 85 1006.9
20260509224206 57 27 1.0 3.0 0.12 0.22 0.22 85 1007.0
20260509223706 57 17 0.0 2.0 0.12 0.22 0.22 85 1007.2
20260509223206 57 17 0.0 2.0 0.12 0.22 0.22 85 1007.5
20260509222706 57 44 1.0 2.0 0.12 0.22 0.22 84 1007.5
20260509221706 58 52 0.0 2.0 0.09 0.19 0.19 84 1007.6
20260509221207 58 52 0.0 3.0 0.05 0.15 0.15 84 1007.4
20260509220206 58 30 1.0 3.0 0.05 0.15 0.15 83 1007.2
20260509215706 58 49 1.0 3.0 0.04 0.14 0.14 83 1007.1
20260509214706 58 270 1.0 5.0 0.00 0.10 0.10 82 1008.0
20260509214206 58 325 2.0 6.0 0.00 0.10 0.10 82 1007.1
20260509213706 58 350 3.0 6.0 0.00 0.10 0.10 83 1007.0
20260509213205 58 35 2.0 6.0 0.00 0.10 0.10 83 1007.0
20260509212706 58 39 2.0 5.0 0.00 0.10 0.10 83 1007.4
20260509212206 58 9 2.0 5.0 0.00 0.10 0.10 83 1007.5
20260509211706 58 5 2.0 5.0 0.00 0.10 0.10 83 1007.4
20260509211206 58 12 2.0 5.0 0.01 0.10 0.10 83 1007.2
20260509210706 59 51 3.0 5.0 0.02 0.10 0.10 83 1007.3
20260509210206 59 51 2.0 6.0 0.03 0.10 0.10 83 1007.2
20260509205706 58 13 3.0 6.0 0.03 0.10 0.10 82 1007.1
20260509205206 58 25 2.0 9.0 0.03 0.10 0.10 82 1007.3
20260509204706 58 317 3.0 9.0 0.03 0.10 0.10 82 1007.4
20260509204206 59 11 4.0 9.0 0.03 0.10 0.10 82 1007.5
20260509203706 59 311 4.0 8.0 0.03 0.10 0.10 82 1007.6
20260509203206 59 355 2.0 3.0 0.03 0.10 0.10 82 1007.6
20260509202706 59 322 2.0 3.0 0.03 0.10 0.10 81 1007.6
20260509202206 59 311 1.0 5.0 0.03 0.10 0.10 81 1007.7
20260509201706 59 296 1.0 5.0 0.03 0.10 0.10 80 1007.6
20260509201205 59 332 3.0 5.0 0.02 0.09 0.09 79 1007.5
20260509200706 60 10 1.0 3.0 0.01 0.08 0.08 80 1007.6
20260509200206 60 269 1.0 3.0 0.00 0.07 0.07 80 1007.8
20260509195706 60 355 0.0 3.0 0.01 0.07 0.07 80 1007.7
20260509195207 60 355 1.0 3.0 0.01 0.07 0.07 80 1007.7
20260509194705 60 15 2.0 3.0 0.02 0.07 0.07 79 1007.8
20260509193705 60 318 2.0 7.0 0.04 0.07 0.07 79 1007.6
20260509193206 60 355 3.0 7.0 0.05 0.07 0.07 79 1007.6
20260509192706 60 358 2.0 7.0 0.06 0.07 0.07 79 1007.4
20260509192206 60 16 2.0 6.0 0.06 0.07 0.07 79 1007.3
20260509191706 60 348 2.0 7.0 0.07 0.07 0.07 79 1007.1
20260509191206 60 5 2.0 7.0 0.07 0.07 0.07 79 1007.0
20260509190207 61 65 3.0 9.0 0.07 0.07 0.07 77 1006.8
20260509185205 62 257 1.0 3.0 0.06 0.06 0.06 74 1008.2
20260509184705 62 223 0.0 3.0 0.05 0.05 0.05 74 1008.4
20260509183706 63 249 2.0 12.0 0.03 0.03 0.03 72 1008.3
20260509182705 63 165 1.0 8.0 0.01 0.01 0.01 70 1008.0
20260509181705 64 190 1.0 5.0 0.00 0.00 0.00 68 1007.9
20260509181206 64 215 2.0 8.0 0.00 0.00 0.00 67 1007.5
20260509180706 64 140 2.0 8.0 0.00 0.00 0.00 66 1007.2
20260509175706 64 147 3.0 6.0 0.00 0.00 0.00 66 1007.2
20260509175205 64 143 1.0 6.0 0.00 0.00 0.00 67 1007.0
20260509174706 63 153 2.0 8.0 0.00 0.00 0.00 67 1006.9
20260509174205 63 108 2.0 8.0 0.00 0.00 0.00 67 1007.1
20260509173706 64 170 3.0 8.0 0.00 0.00 0.00 67 1007.3
20260509173205 65 70 1.0 8.0 0.00 0.00 0.00 65 1007.1
20260509172705 65 134 3.0 7.0 0.00 0.00 0.00 63 1007.0
20260509171705 65 149 2.0 8.0 0.00 0.00 0.00 62 1006.9
20260509170705 65 123 1.0 8.0 0.00 0.00 0.00 61 1006.9
20260509165706 65 112 2.0 5.0 0.00 0.00 0.00 60 1007.1
20260509165205 66 133 2.0 5.0 0.00 0.00 0.00 60 1007.3
20260509164205 65 119 2.0 5.0 0.00 0.00 0.00 61 1007.5
20260509163705 65 177 2.0 6.0 0.00 0.00 0.00 61 1007.7
20260509163206 65 204 3.0 6.0 0.00 0.00 0.00 62 1007.8
20260509162705 64 161 2.0 7.0 0.00 0.00 0.00 63 1007.9
20260509161705 63 153 4.0 8.0 0.00 0.00 0.00 65 1008.1
20260509161206 62 147 3.0 6.0 0.00 0.00 0.00 66 1008.2
20260509160706 63 137 2.0 5.0 0.00 0.00 0.00 66 1008.2
20260509160205 62 124 2.0 5.0 0.00 0.00 0.00 67 1008.3
20260509155705 62 112 2.0 5.0 0.00 0.00 0.00 66 1008.3
20260509155205 62 147 3.0 5.0 0.00 0.00 0.00 65 1008.5
20260509154705 62 146 1.0 3.0 0.00 0.00 0.00 67 1008.5
20260509153705 62 113 1.0 6.0 0.00 0.00 0.00 65 1008.6
20260509153206 62 84 2.0 6.0 0.00 0.00 0.00 65 1008.6
20260509152206 62 167 3.0 7.0 0.00 0.00 0.00 65 1008.8
20260509151706 62 134 2.0 7.0 0.00 0.00 0.00 64 1008.7
20260509150706 61 141 3.0 9.0 0.00 0.00 0.00 65 1008.7
20260509150205 62 124 2.0 9.0 0.00 0.00 0.00 65 1008.7
20260509145205 63 111 2.0 7.0 0.00 0.00 0.00 64 1008.7
20260509144706 62 159 2.0 7.0 0.00 0.00 0.00 65 1008.7
20260509144206 62 82 3.0 9.0 0.00 0.00 0.00 65 1008.8
20260509143705 61 178 2.0 9.0 0.00 0.00 0.00 66 1008.8
20260509143205 61 137 3.0 9.0 0.00 0.00 0.00 67 1008.8
20260509142705 61 149 3.0 8.0 0.00 0.00 0.00 67 1008.7
20260509142205 60 143 2.0 8.0 0.00 0.00 0.00 67 1008.7
20260509141706 60 155 2.0 8.0 0.00 0.00 0.00 67 1008.7
20260509141206 60 142 2.0 8.0 0.00 0.00 0.00 67 1008.9
20260509140705 60 141 2.0 8.0 0.00 0.00 0.00 67 1008.8
20260509140205 60 155 2.0 8.0 0.00 0.00 0.00 67 1008.8
20260509135705 60 128 3.0 9.0 0.00 0.00 0.00 67 1008.9
20260509135205 60 124 3.0 9.0 0.00 0.00 0.00 67 1008.9
20260509134705 60 157 5.0 9.0 0.00 0.00 0.00 67 1008.8
20260509133705 60 151 2.0 9.0 0.00 0.00 0.00 66 1009.0
20260509133205 60 141 3.0 7.0 0.00 0.00 0.00 66 1009.0
20260509132705 60 119 3.0 7.0 0.00 0.00 0.00 66 1008.9
20260509132205 59 153 4.0 7.0 0.00 0.00 0.00 66 1008.9
20260509131705 59 148 2.0 8.0 0.00 0.00 0.00 67 1008.7
20260509130205 59 148 3.0 8.0 0.00 0.00 0.00 68 1009.0
20260509125705 59 136 2.0 8.0 0.00 0.00 0.00 68 1009.0
20260509125205 58 225 5.0 9.0 0.00 0.00 0.00 68 1009.3
20260509124705 58 144 3.0 9.0 0.00 0.00 0.00 67 1009.3
20260509124206 58 169 2.0 8.0 0.00 0.00 0.00 67 1009.3
20260509123706 58 144 5.0 8.0 0.00 0.00 0.00 68 1009.3
20260509123205 58 144 3.0 5.0 0.00 0.00 0.00 69 1009.3
20260509122705 58 169 2.0 5.0 0.00 0.00 0.00 69 1009.3
20260509122206 58 158 1.0 3.0 0.00 0.00 0.00 68 1009.3